Flag for India Weather past 2 weeks in Kãnpur, Uttar Pradesh, India

Now
86 °F

Haze.


Feels Like: 97 °F
Forecast: 78 / 97 °F
Wind: 5 mph from West

Location: Lucknow / Amausi

Current Time: Sep 1, 2015 at 9:42:14 PM

Latest Report: Sep 1, 2015 at 9:00 PM


Visibility: 2 mi

Pressure: 29.56 "Hg

Humidity: 75%

Dew point: 77 °F

Location of KãnpurLocation

Historic Weather in Kãnpur — Graph

°F

Kãnpur temperature yesterday

Maximum temperature yesterday: 99 °F (at 1:30 PM)
Minimum temperature yesterday: 82 °F (at 5:00 AM)
Average temperature yesterday: 90 °F

Past Weeks' High & Low Weather Summary

 TemperatureHumidityPressure
High99 °F (Aug 26, 1:00 PM)100% (Aug 18, 5:30 AM)29.68 "Hg (Aug 18, 5:30 AM)
Low75 °F (Aug 22, 8:30 AM)50% (Aug 25, 2:30 PM)29.50 "Hg (Aug 22, 5:00 PM)
Average88 °F79%29.59 "Hg
* Reported Aug 17 7:30 PM — Sep 1 8:00 PM, Kãnpur, Weather by CustomWeather, © 2015

Note: Actual official high and low records may vary slightly from our data, if they occured in-between our weather recording intervals... More about our weather records

Advertising

Kãnpur weather history for previous 24 hours

 ConditionsComfort  
Time TempWeatherWind HumidityBarometerVisibility
8:00 PM
Tue, Sep 1
88 °FHaze.2 mph70%29.53 "Hg2 mi
7:30 PM88 °FHaze.3 mph70%29.53 "Hg2 mi
6:30 PM91 °FHaze.6 mph67%29.53 "Hg3 mi
6:00 PM93 °FHaze.7 mph63%29.50 "Hg3 mi
5:30 PM95 °FScattered clouds.12 mph60%29.50 "Hg3 mi
4:00 PM97 °FScattered clouds.12 mph53%29.50 "Hg3 mi
3:30 PM97 °FScattered clouds.12 mph53%29.53 "Hg3 mi
3:00 PM99 °FScattered clouds.12 mph50%29.53 "Hg3 mi
2:30 PM99 °FScattered clouds.16 mph53%29.53 "Hg3 mi
2:00 PM99 °FScattered clouds.9 mph53%29.56 "Hg3 mi
1:30 PM97 °FScattered clouds.14 mph53%29.56 "Hg3 mi
1:00 PM97 °FScattered clouds.14 mph53%29.56 "Hg3 mi
12:00 PM95 °FScattered clouds.13 mph60%29.59 "Hg3 mi
11:30 AM95 °FScattered clouds.14 mph60%29.59 "Hg3 mi
11:00 AM95 °FScattered clouds.16 mph60%29.59 "Hg3 mi
10:30 AM93 °FHaze.14 mph63%29.59 "Hg3 mi
10:00 AM93 °FHaze.14 mph63%29.59 "Hg3 mi
9:30 AM91 °FHaze.14 mph63%29.59 "Hg3 mi
8:30 AM90 °FHaze.10 mph71%29.59 "Hg3 mi
8:00 AM88 °FHaze.7 mph75%29.59 "Hg2 mi
7:30 AM84 °FFog.5 mph84%29.56 "Hg2 mi
7:00 AM82 °FFog.6 mph89%29.56 "Hg2 mi
6:30 AM82 °FFog.5 mph89%29.56 "Hg2 mi
6:00 AM82 °FFog.2 mph89%29.56 "Hg2 mi
5:30 AM82 °FFog.5 mph89%29.56 "Hg2 mi
5:00 AM82 °FPassing clouds.2 mph89%29.56 "Hg2 mi
4:00 AM82 °FPassing clouds.No wind89%29.53 "Hg2 mi
3:00 AM82 °FPassing clouds.No wind89%29.53 "Hg2 mi
2:00 AM84 °FPassing clouds.No wind84%29.56 "Hg3 mi
1:00 AM84 °FPassing clouds.No wind84%29.56 "Hg3 mi
12:00 AM86 °FPartly cloudy.3 mph79%29.59 "Hg3 mi
11:00 PM
Mon, Aug 31
86 °FPartly cloudy.3 mph84%29.59 "Hg3 mi
10:00 PM86 °FPartly cloudy.3 mph84%29.59 "Hg3 mi
Weather by CustomWeather, © 2015

See weather overviewHow to use our weather pages